Cloverdale, Indiana, United States (46120)
Lat: 39.51N, Lon: 86.79W
Wx Zone: INZ045
Local Info
Past Weather Observations for Sunday, July 27, 2014

NOTE: This archive is for the closest National Weather Service station to Cloverdale. Information may differ from the station used for current weather conditions.

Click here for Long-term Archive

Time Weather Temperature Dewpoint Humidity Pressure Winds Precip Visibility
23:53
Clear
68°F / 20°C 57°F / 14°C 69% 29.89 in
(1012 mb)
NW 8.1 mph
(NW 13 kph)
- 10SM
22:53
Clear
70°F / 21°C 57°F / 14°C 64% 29.89 in
(1012 mb)
NW 8.1 mph
(NW 13 kph)
- 10SM
21:53
Clear
73°F / 23°C 57°F / 14°C 57% 29.89 in
(1012 mb)
NW 8.1 mph
(NW 13 kph)
- 10SM
20:53
Clear
73°F / 23°C 59°F / 15°C 61% 29.86 in
(1011 mb)
NW 12.7 mph
(NW 20 kph)
- 10SM
19:53
Clear
75°F / 24°C 59°F / 15°C 57% 29.83 in
(1010 mb)
NW 9.2 mph
(NW 15 kph)
- 10SM
18:53
Clear
79°F / 26°C 63°F / 17°C 58% 29.8 in
(1009 mb)
NW 12.7 mph
(NW 20 kph)
- 10SM
17:53
Partly Cloudy
79°F / 26°C 70°F / 21°C 74% 29.77 in
(1008 mb)
WNW 8.1 mph
(WNW 13 kph)
0.01 in
(0.25 mm)
10SM
17:41
Overcast
Light Rain
73°F / 23°C 68°F / 20°C 83% 29.77 in
(1008 mb)
NW 10.4 mph
(NW 17 kph)
0.01 in
(0.25 mm)
4SM
17:30
Overcast
Heavy Rain
79°F / 26°C 70°F / 21°C 74% 29.8 in
(1009 mb)
W 24.2 mph
(W 39 kph)
0.01 in
(0.25 mm)
1 1/4SM
16:53
Partly Cloudy
82°F / 28°C 70°F / 21°C 66% 29.77 in
(1008 mb)
W 10.4 mph
(W 17 kph)
- 10SM
15:53
Clear
84°F / 29°C 70°F / 21°C 62% 29.77 in
(1008 mb)
W 10.4 mph
(W 17 kph)
- 10SM
14:53
Partly Cloudy
84°F / 29°C 72°F / 22°C 66% 29.77 in
(1008 mb)
WNW 9.2 mph
(WNW 15 kph)
- 10SM
13:53
Partly Cloudy
82°F / 28°C 73°F / 23°C 74% 29.8 in
(1009 mb)
W 12.7 mph
(W 20 kph)
- 10SM
13:02
Partly Cloudy
84°F / 29°C 75°F / 24°C 74% 29.8 in
(1009 mb)
SSW 11.5 mph
(SSW 19 kph)
- 9SM
12:53
Mostly Cloudy
82°F / 28°C 75°F / 24°C 79% 29.8 in
(1009 mb)
SSW 9.2 mph
(SSW 15 kph)
- 9SM
12:07
Mostly Cloudy
Hazy
81°F / 27°C 75°F / 24°C 84% 29.8 in
(1009 mb)
SSW 8.1 mph
(SSW 13 kph)
- 6SM
12:00
Overcast
Fog And Mist
81°F / 27°C 75°F / 24°C 84% 29.8 in
(1009 mb)
SSW 4.6 mph
(SSW 7 kph)
- 5SM
11:53
Overcast
Hazy
81°F / 27°C 75°F / 24°C 84% 29.8 in
(1009 mb)
SSW 4.6 mph
(SSW 7 kph)
- 5SM
11:50
Overcast
Fog And Mist
79°F / 26°C 75°F / 24°C 89% 29.8 in
(1009 mb)
SSW 5.8 mph
(SSW 9 kph)
- 5SM
10:53
Overcast
Fog And Mist
75°F / 24°C 72°F / 22°C 89% 29.8 in
(1009 mb)
SE 5.8 mph
(SE 9 kph)
- 4SM
09:53
Overcast
Fog And Mist
73°F / 23°C 70°F / 21°C 89% 29.83 in
(1010 mb)
SSE 5.8 mph
(SSE 9 kph)
- 4SM
09:41
Overcast
Thunder Storms
73°F / 23°C 70°F / 21°C 89% 29.83 in
(1010 mb)
S 3.5 mph
(S 6 kph)
- 4SM
09:19
Overcast
Fog And Mist
73°F / 23°C 70°F / 21°C 89% 29.83 in
(1010 mb)
ESE 6.9 mph
(ESE 11 kph)
- 6SM
08:53
Overcast
Fog And Mist
73°F / 23°C 70°F / 21°C 89% 29.83 in
(1010 mb)
SSE 6.9 mph
(SSE 11 kph)
0.01 in
(0.25 mm)
5SM
08:39
Overcast
Fog And Mist
73°F / 23°C 70°F / 21°C 89% 29.83 in
(1010 mb)
SSE 8.1 mph
(SSE 13 kph)
0.01 in
(0.25 mm)
6SM
08:34
Overcast
73°F / 23°C 70°F / 21°C 89% 29.83 in
(1010 mb)
SSE 8.1 mph
(SSE 13 kph)
0.01 in
(0.25 mm)
7SM
08:00
Overcast
73°F / 23°C 70°F / 21°C 89% 29.83 in
(1010 mb)
SSE 4.6 mph
(SSE 7 kph)
- 10SM
07:53
Overcast
Thunder Storms
73°F / 23°C 70°F / 21°C 89% 29.83 in
(1010 mb)
S 4.6 mph
(S 7 kph)
0.00 in
(0.00 mm)
10SM
07:45
Mostly Cloudy
Thunder Storms
73°F / 23°C 70°F / 21°C 89% 29.83 in
(1010 mb)
S 4.6 mph
(S 7 kph)
0.00 in
(0.00 mm)
10SM
07:34
Overcast
Fog And Mist
72°F / 22°C 70°F / 21°C 94% 29.83 in
(1010 mb)
SE 4.6 mph
(SE 7 kph)
0.00 in
(0.00 mm)
6SM
07:17
Overcast
Thunder Storms
72°F / 22°C 68°F / 20°C 88% 29.83 in
(1010 mb)
Calm 0.00 in
(0.00 mm)
6SM
07:09
Overcast
Thunder Storms
72°F / 22°C 68°F / 20°C 88% 29.83 in
(1010 mb)
Calm 0.00 in
(0.00 mm)
2 1/2SM
06:53
Overcast
Thunder Storms
72°F / 22°C 68°F / 20°C 88% 29.83 in
(1010 mb)
SW 8.1 mph
(SW 13 kph)
0.01 in
(0.25 mm)
10SM
06:49
Overcast
Thunder Storms
72°F / 22°C 68°F / 20°C 88% 29.83 in
(1010 mb)
SW 8.1 mph
(SW 13 kph)
0.01 in
(0.25 mm)
10SM
06:19
Overcast
Thunder Storms
72°F / 22°C 68°F / 20°C 88% 29.83 in
(1010 mb)
W 6.9 mph
(W 11 kph)
0.01 in
(0.25 mm)
5SM
06:08
Overcast
Thunder Storms
72°F / 22°C 68°F / 20°C 88% 29.83 in
(1010 mb)
SW 12.7 mph
(SW 20 kph)
0.01 in
(0.25 mm)
3SM
05:56
Overcast
Thunder Storms
72°F / 22°C 68°F / 20°C 88% 29.89 in
(1012 mb)
NW 13.8 mph
(NW 22 kph)
0.01 in
(0.25 mm)
1 3/4SM
05:53
Overcast
Thunder Storms
72°F / 22°C 68°F / 20°C 88% 29.86 in
(1011 mb)
W 10.4 mph
(W 17 kph)
- 2 1/2SM
05:50
Overcast
Thunder Storms
70°F / 21°C 68°F / 20°C 94% 29.86 in
(1011 mb)
WNW 10.4 mph
(WNW 17 kph)
- 2SM
05:39
Overcast
Thunder Storms
70°F / 21°C 66°F / 19°C 88% 29.8 in
(1009 mb)
NE 12.7 mph
(NE 20 kph)
- 1/2SM
05:30
Overcast
Thunder Storms
70°F / 21°C 66°F / 19°C 88% 29.83 in
(1010 mb)
NW 15 mph
(NW 24 kph)
0.00 in
(0.00 mm)
1/2SM
05:23
Overcast
Thunder Storms
72°F / 22°C 68°F / 20°C 88% 29.86 in
(1011 mb)
W 20.7 mph
(W 33 kph)
0.00 in
(0.00 mm)
1 3/4SM
05:18
Overcast
Thunder Storms
72°F / 22°C 70°F / 21°C 94% 29.8 in
(1009 mb)
S 9.2 mph
(S 15 kph)
- 6SM
05:08
Overcast
Thunder Storms
72°F / 22°C 68°F / 20°C 88% 29.8 in
(1009 mb)
SSE 12.7 mph
(SSE 20 kph)
- 6SM
05:01
Overcast
Fog And Mist
72°F / 22°C 70°F / 21°C 94% 29.8 in
(1009 mb)
SSE 6.9 mph
(SSE 11 kph)
- 6SM
04:53
Overcast
Thunder Storms
72°F / 22°C 70°F / 21°C 94% 29.8 in
(1009 mb)
SSE 11.5 mph
(SSE 19 kph)
- 6SM
04:36
Mostly Cloudy
Thunder Storms
72°F / 22°C 70°F / 21°C 94% 29.83 in
(1010 mb)
S 5.8 mph
(S 9 kph)
- 9SM
04:27
Mostly Cloudy
72°F / 22°C 68°F / 20°C 88% 29.83 in
(1010 mb)
Calm - 10SM
03:53
Mostly Cloudy
72°F / 22°C 68°F / 20°C 88% 29.83 in
(1010 mb)
S 3.5 mph
(S 6 kph)
- 8SM
02:53
Mostly Cloudy
72°F / 22°C 68°F / 20°C 88% 29.86 in
(1011 mb)
Calm - 9SM
01:53
Overcast
72°F / 22°C 68°F / 20°C 88% 29.89 in
(1012 mb)
SSW 4.6 mph
(SSW 7 kph)
- 10SM
00:53
Overcast
72°F / 22°C 70°F / 21°C 94% 29.92 in
(1013 mb)
SSW 6.9 mph
(SSW 11 kph)
- 10SM
00:11
Overcast
72°F / 22°C 70°F / 21°C 94% 29.92 in
(1013 mb)
SW 11.5 mph
(SW 19 kph)
- 10SM
Time Weather Temperature Dewpoint Humidity Pressure Winds Precip Visibility


Weather for websites

WeatherForYou.com, LLC is not responsible for any damages or problems caused by this service. Current weather conditions are obtained from the closest station including government and personal stations which may have varying degrees of accuracy. Weather forecasts are derived from the NOAA NDFD. Like all things, this site belongs to Jesus Christ... He just trusts me to maintain it. If you have any questions or comments email webmaster@weatherforyou.com

Copyright © 2014, WeatherForYou.com LLC. All rights reserved.